Find Xingwang Jishu Shiyan W.

NORAD ID: 68834 Int'l Des: 2026-091 Owner: ZXW Country: CN Constellation: xingwang operational
LEOCIRCULAR

現在のビュー

3D地球を読み込み中...

About Xingwang Jishu Shiyan W.

Xingwang Jishu Shiyan W. (NORAD 68834) is a xingwang constellation satellite launched Apr 24, 2026 by ZXW of CN. It operates in LEO, CIRCULAR orbit with a mass of 300.00 kg.

Xingwang Jishu Shiyan W.について

説明を読み込み中...

次回通過

Passes for default location (London). Set your location on the main map for personalized predictions.

高度履歴

Loading altitude history...

軌道要素

1 68834U 26091D 26154.71110491 .00008671 00000-0 41704-3 0 9990
2 68834 54.9991 80.5554 0014858 71.2332 289.0298 15.19510712 6151
Epoch: Jun 3, 2026 • Age: 138 hours

現在のステータス

高度 503.6 km
速度 7.62 km/s
衛星直下点 46.64°N, 126.19°E
打ち上げ日 Apr 24, 2026
運用期間 0.1 years
タイプ internet

技術仕様

分類 Payload
質量 300.00 kg
乾燥質量 300.00 kg
総質量 300.00 kg
長さ 2.50 m
直径 0.80 m
スパン 2.50 m
形状 Box + 2 Pan
製造者 UNKCN
フェーズステータス In Orbit
所有者/国 ZXW/CN

Most Searched